Terminal Aerodrome Forecast
Issued by NWS Amarillo, TX

Home | Current Version | Previous Version | Text Only | Print | Product List | Glossary On
Versions: 1 2 3 4 5 6 7 8 9 10 11 12 13 14
000
FTUS44 KAMA 181100
TAFGUY
TAF
KGUY 181120Z 1812/1912 32008KT 6SM BR OVC013
     FM181500 36005KT P6SM BKN020
     FM190600 VRB03KT 3SM BR BKN009=

USA.gov is the U.S. government's official web portal to all federal, state and local government web resources and services.